When you browse on this site, cookies collect data to enhance your experience and personalize the content and advertising you see.
Visit our Privacy Policy to learn more. By continuing to use the site, you agree to this use of cookies and data.
  • Em Portugal
  • Lista de países
  • Para 7 dias
  • Temperatura da água
  • Mapa do tempo
  • Widgets de tempo
  • user-avatar
    Iniciar Sessão

    Previsão horária em Lisboa

    Hoje, 28 Maio, Quinta-feira

    Tempo Temperatura Precipitação Vento Pressão Humidade
    00:00 +23°C° 0 mm 2 m/s 760 mmHg 60%
    01:00 +23°C° 0 mm 2 m/s 759 mmHg 60%
    02:00 +23°C° 0 mm 2 m/s 759 mmHg 60%
    03:00 +21°C° 0 mm 2 m/s 759 mmHg 66%
    04:00 +20°C° 0 mm 2 m/s 759 mmHg 72%
    05:00 +20°C° 0 mm 3 m/s 759 mmHg 77%
    06:00 +22°C° 0 mm 3 m/s 759 mmHg 72%
    07:00 +24°C° 0 mm 3 m/s 759 mmHg 66%
    08:00 +26°C° 0 mm 3 m/s 759 mmHg 61%
    09:00 +28°C° 0 mm 3 m/s 759 mmHg 53%
    10:00 +30°C° 0 mm 3 m/s 759 mmHg 46%
    11:00 +32°C° 0 mm 2 m/s 759 mmHg 38%
    12:00 +33°C° 0 mm 3 m/s 759 mmHg 38%
    13:00 +33°C° 0 mm 3 m/s 758 mmHg 37%
    14:00 +33°C° 0 mm 3 m/s 758 mmHg 36%
    15:00 +31°C° 0 mm 3 m/s 758 mmHg 41%
    16:00 +30°C° 0 mm 4 m/s 758 mmHg 45%
    17:00 +28°C° 0 mm 5 m/s 757 mmHg 49%
    18:00 +27°C° 0 mm 4 m/s 758 mmHg 51%
    19:00 +26°C° 0 mm 4 m/s 758 mmHg 53%
    20:00 +25°C° 0 mm 4 m/s 758 mmHg 55%
    21:00 +23°C° 0 mm 4 m/s 758 mmHg 55%
    22:00 +23°C° 0 mm 4 m/s 758 mmHg 55%
    23:00 +22°C° 0 mm 3 m/s 757 mmHg 54%

    Amanhã, 29 Maio, Sexta-feira

    Tempo Temperatura Precipitação Vento Pressão Humidade
    00:00 +22°C° 0 mm 3 m/s 757 mmHg 56%
    01:00 +22°C° 0 mm 3 m/s 757 mmHg 58%
    02:00 +22°C° 0 mm 3 m/s 757 mmHg 60%
    03:00 +23°C° 0 mm 2 m/s 757 mmHg 61%
    04:00 +21°C° 0 mm 2 m/s 757 mmHg 61%
    05:00 +21°C° 0 mm 2 m/s 757 mmHg 62%
    06:00 +24°C° 0 mm 2 m/s 757 mmHg 56%
    07:00 +26°C° 0 mm 1 m/s 757 mmHg 51%
    08:00 +28°C° 0 mm 1 m/s 757 mmHg 46%
    09:00 +29°C° 0 mm 1 m/s 757 mmHg 42%
    10:00 +31°C° 0 mm 2 m/s 757 mmHg 39%
    11:00 +32°C° 0 mm 2 m/s 757 mmHg 36%
    12:00 +32°C° 0 mm 2 m/s 756 mmHg 37%
    13:00 +33°C° 0 mm 3 m/s 756 mmHg 38%
    14:00 +33°C° 0 mm 3 m/s 756 mmHg 38%
    15:00 +32°C° 0 mm 4 m/s 755 mmHg 43%
    16:00 +29°C° 0 mm 4 m/s 755 mmHg 48%
    17:00 +28°C° 0 mm 4 m/s 755 mmHg 53%
    18:00 +27°C° 0 mm 4 m/s 755 mmHg 56%
    19:00 +25°C° 0 mm 3 m/s 755 mmHg 58%
    20:00 +24°C° 0 mm 3 m/s 755 mmHg 61%
    21:00 +22°C° 0 mm 3 m/s 755 mmHg 63%
    22:00 +22°C° 0 mm 3 m/s 755 mmHg 65%
    23:00 +21°C° 0 mm 2 m/s 755 mmHg 68%

    Depois de amanhã, 30 Maio, Sábado

    Tempo Temperatura Precipitação Vento Pressão Humidade
    00:00 +21°C° 0 mm 2 m/s 755 mmHg 70%
    01:00 +20°C° 0 mm 2 m/s 754 mmHg 72%
    02:00 +20°C° 0 mm 2 m/s 754 mmHg 74%
    03:00 +20°C° 0 mm 2 m/s 754 mmHg 74%
    04:00 +20°C° 0 mm 2 m/s 754 mmHg 74%
    05:00 +21°C° 0 mm 1 m/s 754 mmHg 74%
    06:00 +23°C° 0 mm 1 m/s 754 mmHg 67%
    07:00 +25°C° 0 mm 1 m/s 754 mmHg 60%
    08:00 +27°C° 0 mm 1 m/s 754 mmHg 52%
    09:00 +29°C° 0 mm 1 m/s 754 mmHg 49%
    10:00 +30°C° 0 mm 2 m/s 754 mmHg 45%
    11:00 +32°C° 0 mm 2 m/s 754 mmHg 42%
    12:00 +32°C° 0 mm 2 m/s 754 mmHg 43%
    13:00 +33°C° 0 mm 3 m/s 753 mmHg 44%
    14:00 +31°C° 0 mm 3 m/s 753 mmHg 45%
    15:00 +30°C° 0 mm 4 m/s 753 mmHg 49%
    16:00 +28°C° 0 mm 4 m/s 753 mmHg 54%
    17:00 +27°C° 0 mm 4 m/s 753 mmHg 59%
    18:00 +25°C° 0 mm 4 m/s 753 mmHg 64%
    19:00 +24°C° 0 mm 3 m/s 753 mmHg 69%
    20:00 +22°C° 0 mm 3 m/s 754 mmHg 74%
    21:00 +21°C° 0 mm 2 m/s 754 mmHg 75%
    22:00 +21°C° 0 mm 2 m/s 753 mmHg 75%
    23:00 +21°C° 0 mm 2 m/s 753 mmHg 75%

    31 Maio, Domingo

    Tempo Temperatura Precipitação Vento Pressão Humidade
    00:00 +20°C° 0 mm 2 m/s 753 mmHg 76%
    01:00 +20°C° 0 mm 2 m/s 753 mmHg 76%
    02:00 +21°C° 0 mm 1 m/s 753 mmHg 77%
    03:00 +21°C° 0.1 mm 1 m/s 753 mmHg 77%
    04:00 +21°C° 0.1 mm 1 m/s 753 mmHg 78%
    05:00 +21°C° 0.1 mm 1 m/s 753 mmHg 79%
    06:00 +23°C° 0 mm 1 m/s 753 mmHg 73%
    07:00 +24°C° 0 mm 1 m/s 753 mmHg 67%
    08:00 +25°C° 0 mm 1 m/s 753 mmHg 62%
    09:00 +27°C° 0 mm 2 m/s 753 mmHg 54%
    10:00 +28°C° 0 mm 2 m/s 753 mmHg 46%
    11:00 +29°C° 0 mm 2 m/s 754 mmHg 39%
    12:00 +30°C° 0 mm 2 m/s 753 mmHg 36%
    13:00 +31°C° 0 mm 3 m/s 753 mmHg 34%
    14:00 +31°C° 0 mm 3 m/s 753 mmHg 32%
    15:00 +30°C° 0 mm 3 m/s 753 mmHg 38%
    16:00 +29°C° 0 mm 4 m/s 753 mmHg 44%
    17:00 +28°C° 0 mm 4 m/s 752 mmHg 50%
    18:00 +26°C° 0 mm 4 m/s 753 mmHg 59%
    19:00 +23°C° 0 mm 4 m/s 754 mmHg 68%
    20:00 +21°C° 0 mm 3 m/s 754 mmHg 76%
    21:00 +20°C° 0 mm 3 m/s 754 mmHg 77%
    22:00 +20°C° 0 mm 2 m/s 754 mmHg 78%
    23:00 +21°C° 0 mm 1 m/s 754 mmHg 80%

    1 Junho, Segunda-feira

    Tempo Temperatura Precipitação Vento Pressão Humidade
    00:00 +20°C° 0 mm 1 m/s 754 mmHg 81%
    01:00 +20°C° 0 mm 1 m/s 754 mmHg 82%
    02:00 +20°C° 0 mm 1 m/s 754 mmHg 84%
    03:00 +20°C° 0 mm 1 m/s 754 mmHg 85%
    04:00 +19°C° 0 mm 1 m/s 754 mmHg 86%
    05:00 +19°C° 0 mm 1 m/s 754 mmHg 86%
    06:00 +21°C° 0 mm 1 m/s 755 mmHg 80%
    07:00 +23°C° 0 mm 2 m/s 755 mmHg 74%
    08:00 +24°C° 0 mm 2 m/s 756 mmHg 67%
    09:00 +25°C° 0 mm 2 m/s 756 mmHg 63%
    10:00 +27°C° 0 mm 2 m/s 756 mmHg 58%
    11:00 +28°C° 0 mm 2 m/s 756 mmHg 54%
    12:00 +28°C° 0 mm 3 m/s 756 mmHg 55%
    13:00 +27°C° 0 mm 3 m/s 756 mmHg 57%
    14:00 +27°C° 0 mm 4 m/s 756 mmHg 59%
    15:00 +26°C° 0 mm 4 m/s 756 mmHg 63%
    16:00 +25°C° 0 mm 4 m/s 756 mmHg 67%
    17:00 +23°C° 0 mm 4 m/s 756 mmHg 71%
    18:00 +22°C° 0 mm 4 m/s 756 mmHg 77%
    19:00 +21°C° 0 mm 3 m/s 756 mmHg 83%
    20:00 +19°C° 0 mm 3 m/s 756 mmHg 90%
    21:00 +19°C° 0 mm 3 m/s 756 mmHg 91%
    22:00 +19°C° 0 mm 2 m/s 756 mmHg 91%
    23:00 +18°C° 0 mm 2 m/s 756 mmHg 92%

    2 Junho, Terça-feira

    Tempo Temperatura Precipitação Vento Pressão Humidade
    00:00 +18°C° 0 mm 2 m/s 756 mmHg 93%
    01:00 +18°C° 0 mm 2 m/s 756 mmHg 94%
    02:00 +18°C° 0 mm 2 m/s 755 mmHg 94%
    03:00 +18°C° 0 mm 2 m/s 755 mmHg 94%
    04:00 +19°C° 0 mm 1 m/s 755 mmHg 94%
    05:00 +19°C° 0 mm 1 m/s 755 mmHg 94%
    06:00 +20°C° 0 mm 2 m/s 755 mmHg 87%
    07:00 +21°C° 0 mm 2 m/s 755 mmHg 79%
    08:00 +23°C° 0 mm 2 m/s 756 mmHg 72%
    09:00 +25°C° 0 mm 3 m/s 756 mmHg 67%
    10:00 +26°C° 0 mm 3 m/s 755 mmHg 63%
    11:00 +27°C° 0 mm 3 m/s 755 mmHg 58%
    12:00 +26°C° 0 mm 4 m/s 755 mmHg 59%
    13:00 +26°C° 0 mm 5 m/s 755 mmHg 60%
    14:00 +26°C° 0 mm 5 m/s 754 mmHg 62%
    15:00 +25°C° 0 mm 5 m/s 754 mmHg 66%
    16:00 +23°C° 0 mm 5 m/s 754 mmHg 70%
    17:00 +22°C° 0 mm 4 m/s 754 mmHg 75%
    18:00 +21°C° 0 mm 4 m/s 754 mmHg 79%
    19:00 +20°C° 0 mm 3 m/s 754 mmHg 83%
    20:00 +19°C° 0 mm 3 m/s 754 mmHg 87%
    21:00 +19°C° 0 mm 3 m/s 753 mmHg 87%
    22:00 +19°C° 0 mm 3 m/s 753 mmHg 88%
    23:00 +18°C° 0 mm 3 m/s 753 mmHg 89%
    Mostrar mais